Year,Month,Day,Hour,Minute,Value (Times are PST for temperature in C)
2015,06,27,07,17,17.60
2015,06,27,07,18,17.70
2015,06,27,07,19,17.70
2015,06,27,07,20,17.80
2015,06,27,07,21,17.80
2015,06,27,07,22,17.90
2015,06,27,07,23,17.90
2015,06,27,07,24,17.90
2015,06,27,07,25,18.00
2015,06,27,07,26,18.10
2015,06,27,07,27,18.10
2015,06,27,07,28,18.20
2015,06,27,07,29,18.20
2015,06,27,07,30,18.30
2015,06,27,07,31,18.40
2015,06,27,07,32,18.50
2015,06,27,07,33,18.60
2015,06,27,07,34,18.70
2015,06,27,07,35,18.70
2015,06,27,07,36,18.80
2015,06,27,07,37,18.90
2015,06,27,07,38,19.00
2015,06,27,07,39,19.10
2015,06,27,07,40,19.20
2015,06,27,07,41,19.30
2015,06,27,07,42,19.40
2015,06,27,07,43,19.40
2015,06,27,07,44,19.50
2015,06,27,07,45,19.60
2015,06,27,07,46,19.70
2015,06,27,07,47,19.70
2015,06,27,07,48,19.80
2015,06,27,07,49,19.90
2015,06,27,07,50,19.90
2015,06,27,07,51,19.90
2015,06,27,07,52,19.90
2015,06,27,07,53,19.90
2015,06,27,07,54,20.00
2015,06,27,07,55,20.10
2015,06,27,07,56,20.10
2015,06,27,07,57,20.10
2015,06,27,07,58,20.10
2015,06,27,07,59,20.10
2015,06,27,08,00,20.20
2015,06,27,08,01,20.20
2015,06,27,08,02,20.20
2015,06,27,08,03,20.20
2015,06,27,08,04,20.20
2015,06,27,08,05,20.20
2015,06,27,08,06,20.20
2015,06,27,08,07,20.20
2015,06,27,08,08,20.20
2015,06,27,08,09,20.20
2015,06,27,08,10,20.20
2015,06,27,08,11,20.30
2015,06,27,08,12,20.30
2015,06,27,08,13,20.30
2015,06,27,08,14,20.40
2015,06,27,08,15,20.40
2015,06,27,08,16,20.40
2015,06,27,08,17,20.50
2015,06,27,08,18,20.50
2015,06,27,08,19,20.60
2015,06,27,08,20,20.60
2015,06,27,08,21,20.60
2015,06,27,08,22,20.70
2015,06,27,08,23,20.70
2015,06,27,08,24,20.80
2015,06,27,08,25,20.80
2015,06,27,08,26,20.90
2015,06,27,08,27,21.00
2015,06,27,08,28,21.00
2015,06,27,08,29,21.00
2015,06,27,08,30,21.00
2015,06,27,08,31,20.90
2015,06,27,08,32,20.80
2015,06,27,08,33,20.80
2015,06,27,08,34,20.70
2015,06,27,08,35,20.60
2015,06,27,08,36,20.60
2015,06,27,08,37,20.60
2015,06,27,08,38,20.50
2015,06,27,08,39,20.50
2015,06,27,08,40,20.50
2015,06,27,08,41,20.50
2015,06,27,08,42,20.60
2015,06,27,08,43,20.70
2015,06,27,08,44,20.70
2015,06,27,08,45,20.80
2015,06,27,08,46,20.80
2015,06,27,08,47,20.90
2015,06,27,08,48,20.90
2015,06,27,08,49,21.00
2015,06,27,08,50,21.00
2015,06,27,08,51,21.10
2015,06,27,08,52,21.20
2015,06,27,08,53,21.20
2015,06,27,08,54,21.30
2015,06,27,08,55,21.40
2015,06,27,08,56,21.50
2015,06,27,08,57,21.60
2015,06,27,08,58,21.60
2015,06,27,08,59,21.70
2015,06,27,09,00,21.80
2015,06,27,09,01,21.90
2015,06,27,09,02,21.90
2015,06,27,09,03,22.00
2015,06,27,09,04,22.00
2015,06,27,09,05,22.00
2015,06,27,09,06,22.10
2015,06,27,09,07,22.20
2015,06,27,09,08,22.30
2015,06,27,09,09,22.40
2015,06,27,09,10,22.40
2015,06,27,09,11,22.50
2015,06,27,09,12,22.50
2015,06,27,09,13,22.60
2015,06,27,09,14,22.60
2015,06,27,09,15,22.60
2015,06,27,09,16,22.70
2015,06,27,09,17,22.70
2015,06,27,09,18,22.80
2015,06,27,09,19,22.80
2015,06,27,09,20,22.80
2015,06,27,09,21,22.90
2015,06,27,09,22,22.90
2015,06,27,09,23,22.90
2015,06,27,09,24,23.00
2015,06,27,09,25,23.10
2015,06,27,09,26,23.20
2015,06,27,09,27,23.30
2015,06,27,09,28,23.40
2015,06,27,09,29,23.50
2015,06,27,09,30,23.60
2015,06,27,09,31,23.70
2015,06,27,09,32,23.70
2015,06,27,09,33,23.70
2015,06,27,09,34,23.60
2015,06,27,09,35,23.40
2015,06,27,09,36,23.30
2015,06,27,09,37,23.10
2015,06,27,09,38,23.00
2015,06,27,09,39,22.90
2015,06,27,09,40,22.90
2015,06,27,09,41,22.90
2015,06,27,09,42,22.80
2015,06,27,09,43,22.70
2015,06,27,09,44,22.60
2015,06,27,09,45,22.60
2015,06,27,09,46,22.50
2015,06,27,09,47,22.50
2015,06,27,09,48,22.40
2015,06,27,09,49,22.40
2015,06,27,09,50,22.30
2015,06,27,09,51,22.10
2015,06,27,09,52,21.90
2015,06,27,09,53,21.50
2015,06,27,09,54,21.10
2015,06,27,09,55,20.80
2015,06,27,09,56,20.50
2015,06,27,09,57,20.30
2015,06,27,09,58,20.10
2015,06,27,09,59,19.90
2015,06,27,10,00,19.70
2015,06,27,10,01,19.60
2015,06,27,10,02,19.30
2015,06,27,10,03,19.10
2015,06,27,10,04,18.90
2015,06,27,10,05,18.70
2015,06,27,10,06,18.50
2015,06,27,10,07,18.30
2015,06,27,10,08,18.10
2015,06,27,10,09,18.00
2015,06,27,10,10,17.90
2015,06,27,10,11,17.90
2015,06,27,10,12,17.90
2015,06,27,10,13,18.00
2015,06,27,10,14,18.10
2015,06,27,10,15,18.10
2015,06,27,10,16,18.00
2015,06,27,10,17,17.90
2015,06,27,10,18,17.90
2015,06,27,10,19,17.90
2015,06,27,10,20,18.00
2015,06,27,10,21,18.10
2015,06,27,10,22,18.20
2015,06,27,10,23,18.20
2015,06,27,10,24,18.30
2015,06,27,10,25,18.40
2015,06,27,10,26,18.50
2015,06,27,10,27,18.60
2015,06,27,10,28,18.60
2015,06,27,10,29,18.60
2015,06,27,10,30,18.60
2015,06,27,10,31,18.60
2015,06,27,10,32,18.60
2015,06,27,10,33,18.60
2015,06,27,10,34,18.70
2015,06,27,10,35,18.70
2015,06,27,10,36,18.80
2015,06,27,10,37,18.90
2015,06,27,10,38,19.00
2015,06,27,10,39,19.10
2015,06,27,10,40,19.20
2015,06,27,10,41,19.40
2015,06,27,10,42,19.40
2015,06,27,10,43,19.50
2015,06,27,10,44,19.70
2015,06,27,10,45,19.90
2015,06,27,10,46,19.90
2015,06,27,10,47,19.90
2015,06,27,10,48,20.10
2015,06,27,10,49,20.20
2015,06,27,10,50,20.30
2015,06,27,10,51,20.40
2015,06,27,10,52,20.50
2015,06,27,10,53,20.60
2015,06,27,10,54,20.70
2015,06,27,10,55,20.80
2015,06,27,10,56,21.00
2015,06,27,10,57,21.20
2015,06,27,10,58,21.30
2015,06,27,10,59,21.50
2015,06,27,11,00,21.60
2015,06,27,11,01,21.80
2015,06,27,11,02,22.00
2015,06,27,11,03,22.10
2015,06,27,11,04,22.30
2015,06,27,11,05,22.50
2015,06,27,11,06,22.60
2015,06,27,11,07,22.80
2015,06,27,11,08,23.00
2015,06,27,11,09,23.20
2015,06,27,11,10,23.30
2015,06,27,11,11,23.40
2015,06,27,11,12,23.50
2015,06,27,11,13,23.60
2015,06,27,11,14,23.60
2015,06,27,11,15,23.70
2015,06,27,11,16,23.70
2015,06,27,11,17,23.80
2015,06,27,11,18,23.90
2015,06,27,11,19,24.00
2015,06,27,11,20,24.10
2015,06,27,11,21,24.30
2015,06,27,11,22,24.40
2015,06,27,11,23,24.50
2015,06,27,11,24,24.70
2015,06,27,11,25,24.70
2015,06,27,11,26,24.80
2015,06,27,11,27,24.80
2015,06,27,11,28,24.90
2015,06,27,11,29,25.00
2015,06,27,11,30,25.10
2015,06,27,11,31,25.10
2015,06,27,11,32,25.20
2015,06,27,11,33,25.20
2015,06,27,11,34,25.20
2015,06,27,11,35,25.20
2015,06,27,11,36,25.10
2015,06,27,11,37,25.10
2015,06,27,11,38,25.10
2015,06,27,11,39,25.10
2015,06,27,11,40,25.00
2015,06,27,11,41,25.00
2015,06,27,11,42,25.20
2015,06,27,11,43,25.30
2015,06,27,11,44,25.50
2015,06,27,11,45,25.60
2015,06,27,11,46,25.80
2015,06,27,11,47,25.80
2015,06,27,11,48,25.80
2015,06,27,11,49,25.70
2015,06,27,11,50,25.70
2015,06,27,11,51,25.80
2015,06,27,11,52,25.80
2015,06,27,11,53,25.80
2015,06,27,11,54,25.80
2015,06,27,11,55,25.90
2015,06,27,11,56,26.00
2015,06,27,11,57,26.00
2015,06,27,11,58,26.00
2015,06,27,11,59,26.00
2015,06,27,12,00,26.00
2015,06,27,12,01,26.00
2015,06,27,12,02,26.10
2015,06,27,12,03,26.10
2015,06,27,12,04,26.20
2015,06,27,12,05,26.30
2015,06,27,12,06,26.30
2015,06,27,12,07,26.30
2015,06,27,12,08,26.30
2015,06,27,12,09,26.20
2015,06,27,12,10,26.00
2015,06,27,12,11,25.80
2015,06,27,12,12,25.70
2015,06,27,12,13,25.60
2015,06,27,12,14,25.60
2015,06,27,12,15,25.50
2015,06,27,12,16,25.50
2015,06,27,12,17,25.40
2015,06,27,12,18,25.40
2015,06,27,12,19,25.30
2015,06,27,12,20,25.20
2015,06,27,12,21,25.10
2015,06,27,12,22,25.10
2015,06,27,12,23,25.10
2015,06,27,12,24,25.20
2015,06,27,12,25,25.20
2015,06,27,12,26,25.30
2015,06,27,12,27,25.40
2015,06,27,12,28,25.50
2015,06,27,12,29,25.70
2015,06,27,12,30,25.80
2015,06,27,12,31,25.90
2015,06,27,12,32,25.90
2015,06,27,12,33,25.90
2015,06,27,12,34,25.90
2015,06,27,12,35,25.80
2015,06,27,12,36,25.60
2015,06,27,12,37,25.50
2015,06,27,12,38,25.40
2015,06,27,12,39,25.30
2015,06,27,12,40,25.30
2015,06,27,12,41,25.40
2015,06,27,12,42,25.40
2015,06,27,12,43,25.40
2015,06,27,12,44,25.50
2015,06,27,12,45,25.50
2015,06,27,12,46,25.50
2015,06,27,12,47,25.60
2015,06,27,12,48,25.80
2015,06,27,12,49,25.90
2015,06,27,12,50,25.90
2015,06,27,12,51,25.90
2015,06,27,12,52,25.90
2015,06,27,12,53,26.00
2015,06,27,12,54,26.10
2015,06,27,12,55,26.10
2015,06,27,12,56,26.00
2015,06,27,12,57,25.90
2015,06,27,12,58,25.80
2015,06,27,12,59,25.70
2015,06,27,13,00,25.60
2015,06,27,13,01,25.40
2015,06,27,13,02,25.30
2015,06,27,13,03,25.10
2015,06,27,13,04,25.00
2015,06,27,13,05,24.90
2015,06,27,13,06,24.90
2015,06,27,13,07,24.80
2015,06,27,13,08,24.60
2015,06,27,13,09,24.60
2015,06,27,13,10,24.50
2015,06,27,13,11,24.50
2015,06,27,13,12,24.40
2015,06,27,13,13,24.30
2015,06,27,13,14,24.20
2015,06,27,13,15,24.10
2015,06,27,13,16,24.10
2015,06,27,13,17,24.10
2015,06,27,13,18,24.00
2015,06,27,13,19,23.90
2015,06,27,13,20,23.80
2015,06,27,13,21,23.80
2015,06,27,13,22,23.70
2015,06,27,13,23,23.60
2015,06,27,13,24,23.40
2015,06,27,13,25,23.30
2015,06,27,13,26,23.30
2015,06,27,13,27,23.40
2015,06,27,13,28,23.40
2015,06,27,13,29,23.50
2015,06,27,13,30,23.60
2015,06,27,13,31,23.70
2015,06,27,13,32,23.80
2015,06,27,13,33,23.80
2015,06,27,13,34,23.90
2015,06,27,13,35,24.00
2015,06,27,13,36,24.10
2015,06,27,13,37,24.10
2015,06,27,13,38,24.10
2015,06,27,13,39,24.10
2015,06,27,13,40,24.00
2015,06,27,13,41,24.10
2015,06,27,13,42,24.10
2015,06,27,13,43,24.10
2015,06,27,13,44,24.20
2015,06,27,13,45,24.20
2015,06,27,13,46,24.40
2015,06,27,13,47,24.50
2015,06,27,13,48,24.50
2015,06,27,13,49,24.70
2015,06,27,13,50,24.80
2015,06,27,13,51,24.90
2015,06,27,13,52,25.00
2015,06,27,13,53,25.00
2015,06,27,13,54,25.10
2015,06,27,13,55,25.20
2015,06,27,13,56,25.30
2015,06,27,13,57,25.40
2015,06,27,13,58,25.40
2015,06,27,13,59,25.40
2015,06,27,14,00,25.40
2015,06,27,14,01,25.30
2015,06,27,14,02,25.30
2015,06,27,14,03,25.00
2015,06,27,14,04,24.80
2015,06,27,14,05,24.70
2015,06,27,14,06,24.60
2015,06,27,14,07,24.70
2015,06,27,14,08,24.70
2015,06,27,14,09,24.80
2015,06,27,14,10,24.90
2015,06,27,14,11,25.00
2015,06,27,14,12,25.20
2015,06,27,14,13,25.30
2015,06,27,14,14,25.30
2015,06,27,14,15,25.30
2015,06,27,14,16,25.40
2015,06,27,14,17,25.40
2015,06,27,14,18,25.40
2015,06,27,14,19,25.40
2015,06,27,14,20,25.30
2015,06,27,14,21,25.40
2015,06,27,14,22,25.50
2015,06,27,14,23,25.60
2015,06,27,14,24,25.70
2015,06,27,14,25,25.80
2015,06,27,14,26,25.80
2015,06,27,14,27,25.80
2015,06,27,14,28,25.90
2015,06,27,14,29,25.90
2015,06,27,14,30,26.00
2015,06,27,14,31,26.00
2015,06,27,14,32,26.00
2015,06,27,14,33,26.00
2015,06,27,14,34,26.10
2015,06,27,14,35,26.20
2015,06,27,14,36,26.30
2015,06,27,14,37,26.30
2015,06,27,14,38,26.40
2015,06,27,14,39,26.40
2015,06,27,14,40,26.40
2015,06,27,14,41,26.40
2015,06,27,14,42,26.40
2015,06,27,14,43,26.50
2015,06,27,14,44,26.60
2015,06,27,14,45,26.60
2015,06,27,14,46,26.60
2015,06,27,14,47,26.70
2015,06,27,14,48,26.80
2015,06,27,14,49,26.90
2015,06,27,14,50,26.90
2015,06,27,14,51,27.00
2015,06,27,14,52,27.10
2015,06,27,14,53,27.10
2015,06,27,14,54,27.10
2015,06,27,14,55,27.20
2015,06,27,14,56,27.20
2015,06,27,14,57,27.30
2015,06,27,14,58,27.30
2015,06,27,14,59,27.30
2015,06,27,15,00,27.30
2015,06,27,15,01,27.30
2015,06,27,15,02,27.30
2015,06,27,15,03,27.40
2015,06,27,15,04,27.40
2015,06,27,15,05,27.40
2015,06,27,15,06,27.30
2015,06,27,15,07,27.30
2015,06,27,15,08,27.20
2015,06,27,15,09,27.20
2015,06,27,15,10,27.20
2015,06,27,15,11,27.10
2015,06,27,15,12,27.10
2015,06,27,15,13,27.10
2015,06,27,15,14,27.00
2015,06,27,15,15,26.90
2015,06,27,15,16,26.90
2015,06,27,15,17,26.90
2015,06,27,15,18,26.90
2015,06,27,15,19,27.00
2015,06,27,15,20,27.10
2015,06,27,15,21,27.10
2015,06,27,15,22,27.20
2015,06,27,15,23,27.20
2015,06,27,15,24,27.20
2015,06,27,15,25,27.20
2015,06,27,15,26,27.20
2015,06,27,15,27,27.20
2015,06,27,15,28,27.30
2015,06,27,15,29,27.30
2015,06,27,15,30,27.30
2015,06,27,15,31,27.40
2015,06,27,15,32,27.60
2015,06,27,15,33,27.60
2015,06,27,15,34,27.70
2015,06,27,15,35,27.80
2015,06,27,15,36,27.90
2015,06,27,15,37,28.10
2015,06,27,15,38,28.20
2015,06,27,15,39,28.20
2015,06,27,15,40,28.30
2015,06,27,15,41,28.40
2015,06,27,15,42,28.40
2015,06,27,15,43,28.40
2015,06,27,15,44,28.50
2015,06,27,15,45,28.60
2015,06,27,15,46,28.70
2015,06,27,15,47,28.70
2015,06,27,15,48,28.60
2015,06,27,15,49,28.60
2015,06,27,15,50,28.60
2015,06,27,15,51,28.50
2015,06,27,15,52,28.40
2015,06,27,15,53,28.40
2015,06,27,15,54,28.40
2015,06,27,15,55,28.30
2015,06,27,15,56,28.40
2015,06,27,15,57,28.40
2015,06,27,15,58,28.40
2015,06,27,15,59,28.40
2015,06,27,16,00,28.50
2015,06,27,16,01,28.60
2015,06,27,16,02,28.60
2015,06,27,16,03,28.60
2015,06,27,16,04,28.60
2015,06,27,16,05,28.60
2015,06,27,16,06,28.60
2015,06,27,16,07,28.60
2015,06,27,16,08,28.60
2015,06,27,16,09,28.60
2015,06,27,16,10,28.60
2015,06,27,16,11,28.60
2015,06,27,16,12,28.70
2015,06,27,16,13,28.70
2015,06,27,16,14,28.70
2015,06,27,16,15,28.70
2015,06,27,16,16,28.70
2015,06,27,16,17,28.70
2015,06,27,16,18,28.70
2015,06,27,16,19,28.70
2015,06,27,16,20,28.70
2015,06,27,16,21,28.70
2015,06,27,16,22,28.80
2015,06,27,16,23,28.80
2015,06,27,16,24,28.80
2015,06,27,16,25,28.80
2015,06,27,16,26,28.80
2015,06,27,16,27,28.80
2015,06,27,16,28,28.80
2015,06,27,16,29,28.70
2015,06,27,16,30,28.60
2015,06,27,16,31,28.60
2015,06,27,16,32,28.60
2015,06,27,16,33,28.60
2015,06,27,16,34,28.40
2015,06,27,16,35,28.40
2015,06,27,16,36,28.30
2015,06,27,16,37,28.20
2015,06,27,16,38,28.20
2015,06,27,16,39,28.10
2015,06,27,16,40,28.10
2015,06,27,16,41,28.10
2015,06,27,16,42,28.20
2015,06,27,16,43,28.20
2015,06,27,16,44,28.20
2015,06,27,16,45,28.20
2015,06,27,16,46,28.20
2015,06,27,16,47,28.30
2015,06,27,16,48,28.30
2015,06,27,16,49,28.40
2015,06,27,16,50,28.40
2015,06,27,16,51,28.50
2015,06,27,16,52,28.60
2015,06,27,16,53,28.60
2015,06,27,16,54,28.70
2015,06,27,16,55,28.70
2015,06,27,16,56,28.70
2015,06,27,16,57,28.80
2015,06,27,16,58,28.80
2015,06,27,16,59,28.80
2015,06,27,17,00,28.80
2015,06,27,17,01,28.80
2015,06,27,17,02,28.60
2015,06,27,17,03,28.40
2015,06,27,17,04,28.20
2015,06,27,17,05,28.10
2015,06,27,17,06,28.00
2015,06,27,17,07,27.90
2015,06,27,17,08,27.80
2015,06,27,17,09,27.80
2015,06,27,17,10,27.80
2015,06,27,17,11,27.80
2015,06,27,17,12,27.80
2015,06,27,17,13,27.80
2015,06,27,17,14,27.70
2015,06,27,17,15,27.50
2015,06,27,17,16,27.40
2015,06,27,17,17,27.30
2015,06,27,17,18,27.10
2015,06,27,17,19,27.10
2015,06,27,17,20,26.90
2015,06,27,17,21,26.90
2015,06,27,17,22,26.90
2015,06,27,17,23,27.00
2015,06,27,17,24,27.10
2015,06,27,17,25,27.10
2015,06,27,17,26,27.10
2015,06,27,17,27,27.00
2015,06,27,17,28,26.90
2015,06,27,17,29,26.80
2015,06,27,17,30,26.70
2015,06,27,17,31,26.70
2015,06,27,17,32,26.60
2015,06,27,17,33,26.50
2015,06,27,17,34,26.40
2015,06,27,17,35,26.30
2015,06,27,17,36,26.20
2015,06,27,17,37,26.10
2015,06,27,17,38,26.00
2015,06,27,17,39,26.00
2015,06,27,17,40,26.00
2015,06,27,17,41,26.00
2015,06,27,17,42,26.10
2015,06,27,17,43,26.10
2015,06,27,17,44,26.20
2015,06,27,17,45,26.20
2015,06,27,17,46,26.20
2015,06,27,17,47,26.20
2015,06,27,17,48,26.20
2015,06,27,17,49,26.20
2015,06,27,17,50,26.30
2015,06,27,17,51,26.30
2015,06,27,17,52,26.30
2015,06,27,17,53,26.30
2015,06,27,17,54,26.40
2015,06,27,17,55,26.40
2015,06,27,17,56,26.50
2015,06,27,17,57,26.60
2015,06,27,17,58,26.70
2015,06,27,17,59,26.80
2015,06,27,18,00,27.00
2015,06,27,18,01,27.10
2015,06,27,18,02,27.20
2015,06,27,18,03,27.20
2015,06,27,18,04,27.30
2015,06,27,18,05,27.30
2015,06,27,18,06,27.30
2015,06,27,18,07,27.30
2015,06,27,18,08,27.30
2015,06,27,18,09,27.20
2015,06,27,18,10,27.10
2015,06,27,18,11,27.10
2015,06,27,18,12,27.00
2015,06,27,18,13,26.90
2015,06,27,18,14,26.90
2015,06,27,18,15,26.90
2015,06,27,18,16,26.80
2015,06,27,18,17,26.80
2015,06,27,18,18,26.70
2015,06,27,18,19,26.60
2015,06,27,18,20,26.60
2015,06,27,18,21,26.50
2015,06,27,18,22,26.40
2015,06,27,18,23,26.40
2015,06,27,18,24,26.30
2015,06,27,18,25,26.30
2015,06,27,18,26,26.30
2015,06,27,18,27,26.30
2015,06,27,18,28,26.40
2015,06,27,18,29,26.40
2015,06,27,18,30,26.40
2015,06,27,18,31,26.40
2015,06,27,18,32,26.40
2015,06,27,18,33,26.40
2015,06,27,18,34,26.40
2015,06,27,18,35,26.40
2015,06,27,18,36,26.30
2015,06,27,18,37,26.30
2015,06,27,18,38,26.20
2015,06,27,18,39,26.20
2015,06,27,18,40,26.10
2015,06,27,18,41,26.00
2015,06,27,18,42,26.00
2015,06,27,18,43,25.90
2015,06,27,18,44,25.90
2015,06,27,18,45,25.80
2015,06,27,18,46,25.80
2015,06,27,18,47,25.70
2015,06,27,18,48,25.70
2015,06,27,18,49,25.70
2015,06,27,18,50,25.60
2015,06,27,18,51,25.60
2015,06,27,18,52,25.60
2015,06,27,18,53,25.50
2015,06,27,18,54,25.40
2015,06,27,18,55,25.40
2015,06,27,18,56,25.30
2015,06,27,18,57,25.30
2015,06,27,18,58,25.30
2015,06,27,18,59,25.30
2015,06,27,19,00,25.30
2015,06,27,19,01,25.30
2015,06,27,19,02,25.30
2015,06,27,19,03,25.30
2015,06,27,19,04,25.40
2015,06,27,19,05,25.40
2015,06,27,19,06,25.40
2015,06,27,19,07,25.40
2015,06,27,19,08,25.40
2015,06,27,19,09,25.30
2015,06,27,19,10,25.30
2015,06,27,19,11,25.20
2015,06,27,19,12,25.10
2015,06,27,19,13,25.00
2015,06,27,19,14,24.90
2015,06,27,19,15,24.80
2015,06,27,19,16,24.70
2015,06,27,19,17,24.60
2015,06,27,19,18,24.60
2015,06,27,19,19,24.60
2015,06,27,19,20,24.50
2015,06,27,19,21,24.50
2015,06,27,19,22,24.50
2015,06,27,19,23,24.40
2015,06,27,19,24,24.40
2015,06,27,19,25,24.40
2015,06,27,19,26,24.30
2015,06,27,19,27,24.30
2015,06,27,19,28,24.30
2015,06,27,19,29,24.30
2015,06,27,19,30,24.30
2015,06,27,19,31,24.30
2015,06,27,19,32,24.30
2015,06,27,19,33,24.20
2015,06,27,19,34,24.20
2015,06,27,19,35,24.10
2015,06,27,19,36,24.10
2015,06,27,19,37,24.10
2015,06,27,19,38,24.10
2015,06,27,19,39,24.10
2015,06,27,19,40,24.10
2015,06,27,19,41,24.10
2015,06,27,19,42,24.10
2015,06,27,19,43,24.10
2015,06,27,19,44,24.20
2015,06,27,19,45,24.20
2015,06,27,19,46,24.20
2015,06,27,19,47,24.20
2015,06,27,19,48,24.20
2015,06,27,19,49,24.20
2015,06,27,19,50,24.20
2015,06,27,19,51,24.20
2015,06,27,19,52,24.20
2015,06,27,19,53,24.30
2015,06,27,19,54,24.30
2015,06,27,19,55,24.30
2015,06,27,19,56,24.30
2015,06,27,19,57,24.40
2015,06,27,19,58,24.40
2015,06,27,19,59,24.40
2015,06,27,20,00,24.50
2015,06,27,20,01,24.50
2015,06,27,20,02,24.50
2015,06,27,20,03,24.60
2015,06,27,20,04,24.60
2015,06,27,20,05,24.60
2015,06,27,20,06,24.60
2015,06,27,20,07,24.60
2015,06,27,20,08,24.70
2015,06,27,20,09,24.70
2015,06,27,20,10,24.70
2015,06,27,20,11,24.70
2015,06,27,20,12,24.80
2015,06,27,20,13,24.80
2015,06,27,20,14,24.80
2015,06,27,20,15,24.90
2015,06,27,20,16,24.90
2015,06,27,20,17,24.90
2015,06,27,20,18,24.90
2015,06,27,20,19,24.90
2015,06,27,20,20,24.90
2015,06,27,20,21,24.90
2015,06,27,20,22,24.90
2015,06,27,20,23,24.90
2015,06,27,20,24,24.80
2015,06,27,20,25,24.80
2015,06,27,20,26,24.80
2015,06,27,20,27,24.70
2015,06,27,20,28,24.70
2015,06,27,20,29,24.70
2015,06,27,20,30,24.60
2015,06,27,20,31,24.50
2015,06,27,20,32,24.40
2015,06,27,20,33,24.40
2015,06,27,20,34,24.30
2015,06,27,20,35,24.20
2015,06,27,20,36,24.10
2015,06,27,20,37,24.00
2015,06,27,20,38,23.90
2015,06,27,20,39,23.90
2015,06,27,20,40,23.90
2015,06,27,20,41,23.90
2015,06,27,20,42,23.90
2015,06,27,20,43,23.90
2015,06,27,20,44,23.90
2015,06,27,20,45,23.90
2015,06,27,20,46,23.90
2015,06,27,20,47,23.90
